Burlington, WA
on Wednesday, February 6, 2013

Wednesday
Previous Day Next Day
Daily Summary
 ActualAverage (KBLI)Record (KBLI)
Temperature
Mean Temperature °F 40°F  
Max Temperature 48°F 48°F 62°F (1963)
Min Temperature 44°F 33°F 20°F (1989)
Degree Days
Heating Degree Days 19 25  
Month to date heating degree days 150  
Cooling Degree Days 0 0  
Month to date cooling degree days 0  
Year to date cooling degree days 0  
Moisture
Dew Point 43°F   
Average Humidity 90    
Maximum Humidity 100    
Minimum Humidity 71    
Precipitation
Precipitation 0.00 in 0.12 in 0.64 in (1961)
Month to date precipitation 0.70  
Year to date precipitation 5.37  
Wind
Wind Speed 9 mph   
Max Wind Speed 17 mph   
Max Gust Speed 29 mph   
Visibility 10 miles   
Events     

Key: T is trace of precipitation, MM is missing value
Source: NWS Daily Summary
Time(PST)TemperatureDew PointHumidity Pressure Visibility Wind DirectionWind SpeedGust SpeedPrecipitationEvents Conditions
12:15 AM 44.6°F 44.6°F 100% 29.92 in 10.0 miles SSE 4.6 mph - 0.00 in   Mostly Cloudy
12:35 AM 44.6°F 44.6°F 100% 29.93 in 10.0 miles SSE 4.6 mph - 0.00 in   Overcast
12:55 AM 44.6°F 44.6°F 100% 29.93 in 10.0 miles SSE 6.9 mph - 0.00 in   Overcast
1:15 AM 44.6°F 44.6°F 100% 29.94 in 10.0 miles SSE 5.8 mph - 0.00 in   Overcast
1:35 AM 44.6°F 42.8°F 93% 29.94 in 10.0 miles South 6.9 mph - 0.00 in   Overcast
1:55 AM 44.6°F 42.8°F 93% 29.95 in 10.0 miles SSE 5.8 mph - 0.00 in   Overcast
2:15 AM 44.6°F 42.8°F 93% 29.95 in 10.0 miles South 5.8 mph - 0.00 in   Overcast
2:35 AM 44.6°F 42.8°F 93% 29.95 in 10.0 miles South 8.1 mph - 0.00 in   Overcast
2:55 AM 44.6°F 42.8°F 93% 29.95 in 10.0 miles SSE 8.1 mph - 0.00 in   Overcast
3:15 AM 44.6°F 42.8°F 93% 29.96 in 10.0 miles South 6.9 mph - 0.00 in   Overcast
3:35 AM 44.6°F 42.8°F 93% 29.96 in 10.0 miles South 10.4 mph - 0.00 in   Overcast
3:55 AM 44.6°F 42.8°F 93% 29.96 in 10.0 miles South 8.1 mph 16.1 mph 0.00 in   Overcast
4:15 AM 44.6°F 42.8°F 93% 29.97 in 10.0 miles South 9.2 mph - 0.00 in   Overcast
4:35 AM 44.6°F 44.6°F 100% 29.98 in 10.0 miles South 6.9 mph - 0.00 in   Overcast
4:55 AM 44.6°F 44.6°F 100% 29.98 in 10.0 miles South 9.2 mph - 0.00 in   Overcast
5:15 AM 44.6°F 44.6°F 100% 29.98 in 10.0 miles South 3.5 mph - 0.00 in   Overcast
5:35 AM 44.6°F 42.8°F 93% 29.99 in 10.0 miles South 8.1 mph - 0.00 in   Overcast
5:55 AM 44.6°F 42.8°F 93% 29.99 in 10.0 miles South 6.9 mph - 0.00 in   Overcast
6:15 AM 44.6°F 42.8°F 93% 30.00 in 10.0 miles SSE 5.8 mph - 0.00 in   Overcast
6:35 AM 44.6°F 42.8°F 93% 30.00 in 10.0 miles SSE 8.1 mph - 0.00 in   Overcast
6:55 AM 44.6°F 44.6°F 100% 30.00 in 10.0 miles South 4.6 mph - 0.00 in   Overcast
7:35 AM 44.6°F 42.8°F 93% 30.01 in 10.0 miles SE 6.9 mph - 0.00 in   Overcast
7:55 AM 44.6°F 42.8°F 93% 30.01 in 10.0 miles SSE 8.1 mph - 0.00 in   Overcast
8:15 AM 44.6°F 42.8°F 93% 30.01 in 10.0 miles SSE 9.2 mph - 0.00 in   Overcast
8:35 AM 44.6°F 42.8°F 93% 30.02 in 10.0 miles SSE 8.1 mph - 0.00 in   Overcast
8:55 AM 44.6°F 42.8°F 93% 30.02 in 10.0 miles SSE 10.4 mph 19.6 mph 0.00 in   Overcast
9:15 AM 44.6°F 42.8°F 93% 30.02 in 10.0 miles SE 10.4 mph 18.4 mph 0.00 in   Overcast
9:35 AM 46.4°F 42.8°F 87% 30.02 in 10.0 miles SSE 9.2 mph 16.1 mph 0.00 in   Overcast
9:55 AM 46.4°F 42.8°F 87% 30.02 in 10.0 miles SE 9.2 mph 17.3 mph 0.00 in   Overcast
10:15 AM 46.4°F 42.8°F 87% 30.01 in 10.0 miles SSE 13.8 mph 18.4 mph 0.00 in   Overcast
10:35 AM 46.4°F 42.8°F 87% 30.01 in 10.0 miles SE 11.5 mph 19.6 mph 0.00 in   Overcast
10:55 AM 46.4°F 42.8°F 87% 30.01 in 10.0 miles SSE 12.7 mph 18.4 mph 0.00 in   Overcast
11:15 AM 46.4°F 42.8°F 87% 30.01 in 10.0 miles SSE 12.7 mph 18.4 mph 0.00 in   Overcast
11:35 AM 48.2°F 42.8°F 82% 30.01 in 10.0 miles SSE 13.8 mph - 0.00 in   Overcast
11:55 AM 48.2°F 42.8°F 82% 30.00 in 10.0 miles SSE 15.0 mph 20.7 mph 0.00 in   Mostly Cloudy
12:15 PM 48.2°F 42.8°F 82% 29.99 in 10.0 miles SSE 13.8 mph 18.4 mph 0.00 in   Mostly Cloudy
12:35 PM 48.2°F 42.8°F 82% 29.99 in 10.0 miles SE 13.8 mph 23.0 mph 0.00 in   Mostly Cloudy
12:55 PM 48.2°F 41.0°F 76% 29.98 in 10.0 miles SE 13.8 mph 25.3 mph 0.00 in   Mostly Cloudy
1:15 PM 48.2°F 41.0°F 76% 29.97 in 10.0 miles SE 13.8 mph 25.3 mph 0.00 in   Mostly Cloudy
1:35 PM 48.2°F 41.0°F 76% 29.97 in 10.0 miles SSE 16.1 mph 28.8 mph 0.00 in   Scattered Clouds
1:55 PM 48.2°F 41.0°F 76% 29.96 in 10.0 miles SE 12.7 mph 21.9 mph 0.00 in   Clear
2:15 PM 48.2°F 39.2°F 71% 29.95 in 10.0 miles SE 12.7 mph 21.9 mph 0.00 in   Partly Cloudy
2:35 PM 46.4°F 42.8°F 87% 29.94 in 10.0 miles East 16.1 mph - 0.00 in   Partly Cloudy
2:55 PM 46.4°F 42.8°F 87% 29.94 in 10.0 miles ESE 13.8 mph 20.7 mph 0.00 in   Mostly Cloudy
3:15 PM 46.4°F 41.0°F 81% 29.94 in 10.0 miles ESE 16.1 mph - 0.00 in   Scattered Clouds
3:35 PM 46.4°F 41.0°F 81% 29.94 in 10.0 miles ESE 13.8 mph - 0.00 in   Mostly Cloudy
3:55 PM 46.4°F 41.0°F 81% 29.94 in 10.0 miles ESE 11.5 mph 16.1 mph 0.00 in   Overcast
4:15 PM 46.4°F 42.8°F 87% 29.94 in 10.0 miles SE 17.3 mph 21.9 mph 0.00 in   Mostly Cloudy
4:35 PM 44.6°F 42.8°F 93% 29.94 in 10.0 miles ESE 16.1 mph 24.2 mph 0.00 in   Mostly Cloudy
4:55 PM 44.6°F 42.8°F 93% 29.93 in 10.0 miles ESE 12.7 mph 18.4 mph 0.00 in   Mostly Cloudy
5:15 PM 44.6°F 42.8°F 93% 29.93 in 10.0 miles ESE 13.8 mph 18.4 mph 0.00 in   Mostly Cloudy
5:35 PM 44.6°F 44.6°F 100% 29.92 in 10.0 miles ESE 11.5 mph - 0.00 in   Overcast
5:55 PM 44.6°F 44.6°F 100% 29.92 in 10.0 miles ESE 9.2 mph - 0.00 in   Overcast
6:15 PM 44.6°F 44.6°F 100% 29.91 in 10.0 miles ESE 11.5 mph - 0.00 in   Overcast
6:35 PM 44.6°F 42.8°F 93% 29.91 in 10.0 miles ESE 11.5 mph 17.3 mph 0.00 in   Overcast
6:55 PM 44.6°F 42.8°F 93% 29.89 in 10.0 miles East 13.8 mph - 0.00 in   Overcast
7:15 PM 44.6°F 42.8°F 93% 29.88 in 10.0 miles East 15.0 mph - 0.00 in   Mostly Cloudy
7:35 PM 44.6°F 42.8°F 93% 29.87 in 10.0 miles ENE 10.4 mph - 0.00 in   Overcast
7:55 PM 44.6°F 42.8°F 93% 29.87 in 10.0 miles ESE 16.1 mph 23.0 mph 0.00 in   Overcast
8:15 PM 46.4°F 42.8°F 87% 29.86 in 10.0 miles ESE 13.8 mph - 0.00 in   Mostly Cloudy
8:35 PM 44.6°F 42.8°F 93% 29.86 in 10.0 miles East 10.4 mph 17.3 mph 0.00 in   Overcast
8:55 PM 44.6°F 42.8°F 93% 29.85 in 10.0 miles East 8.1 mph - 0.00 in   Overcast
9:15 PM 44.6°F 41.0°F 87% 29.83 in 10.0 miles ENE 15.0 mph - 0.00 in   Overcast
9:35 PM 44.6°F 42.8°F 93% 29.82 in 10.0 miles East 13.8 mph 20.7 mph 0.00 in   Mostly Cloudy
9:55 PM 44.6°F 41.0°F 87% 29.81 in 10.0 miles East 12.7 mph - 0.00 in   Partly Cloudy
10:15 PM 44.6°F 41.0°F 87% 29.80 in 10.0 miles East 11.5 mph 23.0 mph 0.00 in   Partly Cloudy
10:35 PM 44.6°F 42.8°F 93% 29.80 in 10.0 miles ENE 16.1 mph - 0.00 in   Mostly Cloudy
10:55 PM 44.6°F 42.8°F 93% 29.79 in 10.0 miles ENE 12.7 mph - 0.00 in   Overcast
11:15 PM 44.6°F 41.0°F 87% 29.79 in 10.0 miles East 10.4 mph - 0.00 in   Mostly Cloudy
11:35 PM 44.6°F 41.0°F 87% 29.79 in 10.0 miles SE 8.1 mph - 0.00 in   Mostly Cloudy
11:55 PM 44.6°F 41.0°F 87% 29.79 in 10.0 miles East 6.9 mph - 0.00 in   Overcast
Moon Phase
Feb. 06 Feb. 10 Feb. 17 Feb. 25 Mar. 04
Sunrise:07:30 AM (PST) Moon Rise:04:29 AM (PST)2/6
Sunset:05:17 PM (PST) Moon Set:01:32 PM (PST)2/6

Copyright © 2014 The Weather Underground, Inc.